When you browse on this site, cookies collect data to enhance your experience and personalize the content and advertising you see.
Visit our Privacy Policy to learn more. By continuing to use the site, you agree to this use of cookies and data.
  • In Deutschland
  • Länderverzeichnis
  • Für 7 Tage
  • Wassertemperatur
  • Wetterkarte
  • Widgets
  • user-avatar
    Anmelden

    Stündliche Wetter Prutz

    Heute, 7 Dezember, Samstag

    Zeit Temperatur Niederschläge Wind Luftdruck Luftfeuchtigkeit
    00:00 -3°C° 0 mm 2 m/S 631 mmHg 51%
    01:00 -2°C° 0 mm 2 m/S 631 mmHg 53%
    02:00 -2°C° 0.1 mm 2 m/S 631 mmHg 56%
    03:00 -1°C° 0.1 mm 2 m/S 631 mmHg 59%
    04:00 +1°C° 0.1 mm 1 m/S 631 mmHg 62%
    05:00 +1°C° 0 mm 1 m/S 631 mmHg 64%
    06:00 +1°C° 0 mm 1 m/S 631 mmHg 67%
    07:00 -1°C° 0 mm 2 m/S 631 mmHg 70%
    08:00 +1°C° 0.1 mm 1 m/S 631 mmHg 75%
    09:00 +2°C° 0.1 mm 1 m/S 632 mmHg 80%
    10:00 +3°C° 0.1 mm 1 m/S 632 mmHg 85%
    11:00 +3°C° 0.1 mm 1 m/S 632 mmHg 88%
    12:00 +3°C° 0.1 mm 1 m/S 632 mmHg 90%
    13:00 +4°C° 0.1 mm 1 m/S 632 mmHg 93%
    14:00 +3°C° 0.1 mm 1 m/S 632 mmHg 94%
    15:00 +2°C° 0.1 mm 1 m/S 632 mmHg 95%
    16:00 +1°C° 0.1 mm 1 m/S 632 mmHg 96%
    17:00 +1°C° 0 mm 1 m/S 632 mmHg 95%
    18:00 0°C° 0 mm 1 m/S 632 mmHg 94%
    19:00 0°C° 0 mm 1 m/S 632 mmHg 92%
    20:00 -1°C° 0 mm 1 m/S 632 mmHg 89%
    21:00 -2°C° 0 mm 1 m/S 632 mmHg 86%
    22:00 -4°C° 0 mm 2 m/S 632 mmHg 82%
    23:00 -4°C° 0 mm 2 m/S 631 mmHg 78%

    Morgen, 8 Dezember, Sonntag

    Zeit Temperatur Niederschläge Wind Luftdruck Luftfeuchtigkeit
    00:00 -4°C° 0 mm 2 m/S 631 mmHg 74%
    01:00 -5°C° 0 mm 2 m/S 631 mmHg 69%
    02:00 -4°C° 0 mm 2 m/S 631 mmHg 63%
    03:00 -4°C° 0 mm 2 m/S 631 mmHg 57%
    04:00 -4°C° 0 mm 2 m/S 630 mmHg 51%
    05:00 -4°C° 0 mm 2 m/S 630 mmHg 46%
    06:00 -3°C° 0 mm 2 m/S 631 mmHg 42%
    07:00 -3°C° 0 mm 2 m/S 631 mmHg 37%
    08:00 -2°C° 0 mm 2 m/S 631 mmHg 41%
    09:00 +1°C° 0 mm 2 m/S 631 mmHg 44%
    10:00 +2°C° 0 mm 2 m/S 632 mmHg 47%
    11:00 +3°C° 0 mm 2 m/S 631 mmHg 54%
    12:00 +4°C° 0 mm 2 m/S 631 mmHg 60%
    13:00 +6°C° 0 mm 1 m/S 631 mmHg 67%
    14:00 +4°C° 0 mm 2 m/S 630 mmHg 63%
    15:00 +2°C° 0 mm 2 m/S 630 mmHg 59%
    16:00 +1°C° 0 mm 2 m/S 629 mmHg 55%
    17:00 +1°C° 0 mm 2 m/S 629 mmHg 54%
    18:00 +1°C° 0 mm 2 m/S 629 mmHg 52%
    19:00 -1°C° 0 mm 2 m/S 628 mmHg 50%
    20:00 -1°C° 0 mm 2 m/S 628 mmHg 52%
    21:00 -1°C° 0 mm 2 m/S 628 mmHg 53%
    22:00 -1°C° 0 mm 2 m/S 627 mmHg 55%
    23:00 -2°C° 0 mm 2 m/S 627 mmHg 56%

    übermorgen, 9 Dezember, Montag

    Zeit Temperatur Niederschläge Wind Luftdruck Luftfeuchtigkeit
    00:00 -2°C° 0 mm 2 m/S 626 mmHg 58%
    01:00 -2°C° 0 mm 2 m/S 626 mmHg 59%
    02:00 -2°C° 0 mm 2 m/S 626 mmHg 62%
    03:00 0°C° 0 mm 1 m/S 625 mmHg 64%
    04:00 0°C° 0 mm 1 m/S 625 mmHg 66%
    05:00 -1°C° 0.5 mm 1 m/S 625 mmHg 73%
    06:00 -2°C° 0.5 mm 1 m/S 624 mmHg 79%
    07:00 -2°C° 0.5 mm 1 m/S 624 mmHg 86%
    08:00 -2°C° 0.2 mm 1 m/S 624 mmHg 87%
    09:00 -1°C° 0.2 mm 1 m/S 624 mmHg 87%
    10:00 -3°C° 0.2 mm 2 m/S 624 mmHg 88%
    11:00 -2°C° 0 mm 2 m/S 624 mmHg 81%
    12:00 -1°C° 0 mm 2 m/S 624 mmHg 75%
    13:00 +1°C° 0 mm 2 m/S 624 mmHg 69%
    14:00 -1°C° 0.1 mm 2 m/S 624 mmHg 73%
    15:00 -2°C° 0.1 mm 2 m/S 623 mmHg 78%
    16:00 -3°C° 0.1 mm 2 m/S 623 mmHg 83%
    17:00 -3°C° 0.8 mm 2 m/S 624 mmHg 87%
    18:00 -2°C° 0.8 mm 1 m/S 624 mmHg 91%
    19:00 -2°C° 0.8 mm 1 m/S 625 mmHg 95%
    20:00 -5°C° 0.7 mm 2 m/S 625 mmHg 95%
    21:00 -5°C° 0.7 mm 2 m/S 626 mmHg 94%
    22:00 -6°C° 0.7 mm 2 m/S 626 mmHg 94%
    23:00 -7°C° 0.2 mm 2 m/S 626 mmHg 93%

    10 Dezember, Dienstag

    Zeit Temperatur Niederschläge Wind Luftdruck Luftfeuchtigkeit
    00:00 -8°C° 0.2 mm 2 m/S 626 mmHg 93%
    01:00 -9°C° 0.2 mm 2 m/S 626 mmHg 92%
    02:00 -9°C° 0.3 mm 2 m/S 627 mmHg 93%
    03:00 -8°C° 0.3 mm 2 m/S 627 mmHg 93%
    04:00 -8°C° 0.3 mm 2 m/S 628 mmHg 94%
    05:00 -8°C° 0.7 mm 2 m/S 629 mmHg 94%
    06:00 -7°C° 0.7 mm 2 m/S 630 mmHg 95%
    07:00 -7°C° 0.7 mm 2 m/S 631 mmHg 95%
    08:00 -7°C° 0.6 mm 2 m/S 631 mmHg 94%
    09:00 -6°C° 0.6 mm 2 m/S 632 mmHg 94%
    10:00 -7°C° 0.6 mm 3 m/S 633 mmHg 93%
    11:00 -6°C° 0.1 mm 2 m/S 633 mmHg 90%
    12:00 -5°C° 0.1 mm 2 m/S 633 mmHg 88%
    13:00 -5°C° 0.1 mm 2 m/S 633 mmHg 85%
    14:00 -7°C° 0 mm 2 m/S 633 mmHg 86%
    15:00 -8°C° 0 mm 2 m/S 632 mmHg 87%
    16:00 -8°C° 0 mm 1 m/S 632 mmHg 89%
    17:00 -10°C° 0 mm 2 m/S 631 mmHg 75%
    18:00 -10°C° 0 mm 2 m/S 631 mmHg 61%
    19:00 -12°C° 0 mm 2 m/S 631 mmHg 48%
    20:00 -10°C° 0 mm 2 m/S 631 mmHg 42%
    21:00 -9°C° 0 mm 2 m/S 631 mmHg 36%
    22:00 -9°C° 0 mm 2 m/S 632 mmHg 30%
    23:00 -8°C° 0 mm 2 m/S 631 mmHg 29%

    11 Dezember, Mittwoch

    Zeit Temperatur Niederschläge Wind Luftdruck Luftfeuchtigkeit
    00:00 -7°C° 0 mm 2 m/S 631 mmHg 28%
    01:00 -7°C° 0 mm 2 m/S 631 mmHg 27%
    02:00 -6°C° 0 mm 2 m/S 631 mmHg 27%
    03:00 -6°C° 0 mm 2 m/S 631 mmHg 27%
    04:00 -5°C° 0 mm 2 m/S 630 mmHg 27%
    05:00 -5°C° 0 mm 2 m/S 630 mmHg 26%
    06:00 -3°C° 0 mm 1 m/S 630 mmHg 26%
    07:00 -2°C° 0 mm 1 m/S 630 mmHg 26%
    08:00 -1°C° 0 mm 1 m/S 630 mmHg 33%
    09:00 +1°C° 0 mm 1 m/S 631 mmHg 40%
    10:00 +2°C° 0 mm 1 m/S 631 mmHg 47%
    11:00 +2°C° 0 mm 0 m/S 631 mmHg 52%
    12:00 +3°C° 0 mm 0 m/S 631 mmHg 57%
    13:00 +3°C° 0 mm 0 m/S 630 mmHg 63%
    14:00 +2°C° 0 mm 0 m/S 630 mmHg 62%
    15:00 0°C° 0 mm 0 m/S 629 mmHg 62%
    16:00 -1°C° 0 mm 0 m/S 628 mmHg 62%
    17:00 -2°C° 0 mm 0 m/S 628 mmHg 63%
    18:00 -2°C° 0 mm 1 m/S 627 mmHg 64%
    19:00 -3°C° 0 mm 1 m/S 627 mmHg 65%
    20:00 -3°C° 0.3 mm 1 m/S 627 mmHg 68%
    21:00 -3°C° 0.3 mm 1 m/S 627 mmHg 71%
    22:00 -3°C° 0.3 mm 1 m/S 627 mmHg 74%
    23:00 -3°C° 0.6 mm 1 m/S 627 mmHg 79%

    12 Dezember, Donnerstag

    Zeit Temperatur Niederschläge Wind Luftdruck Luftfeuchtigkeit
    00:00 -3°C° 0.6 mm 1 m/S 627 mmHg 85%
    01:00 -3°C° 0.6 mm 1 m/S 627 mmHg 90%
    02:00 -4°C° 0.4 mm 1 m/S 626 mmHg 90%
    03:00 -4°C° 0.4 mm 1 m/S 626 mmHg 91%
    04:00 -4°C° 0.4 mm 1 m/S 626 mmHg 91%
    05:00 -6°C° 0.1 mm 1 m/S 626 mmHg 91%
    06:00 -6°C° 0.1 mm 1 m/S 626 mmHg 92%
    07:00 -6°C° 0.1 mm 1 m/S 626 mmHg 92%
    08:00 -6°C° 0 mm 1 m/S 626 mmHg 91%
    09:00 -6°C° 0 mm 1 m/S 627 mmHg 91%
    10:00 -6°C° 0 mm 1 m/S 627 mmHg 90%
    11:00 -4°C° 0 mm 1 m/S 627 mmHg 86%
    12:00 -3°C° 0 mm 1 m/S 627 mmHg 81%
    13:00 -2°C° 0 mm 1 m/S 626 mmHg 77%
    14:00 -4°C° 0 mm 1 m/S 625 mmHg 81%
    15:00 -6°C° 0 mm 1 m/S 625 mmHg 84%
    16:00 -8°C° 0 mm 1 m/S 624 mmHg 88%
    17:00 -9°C° 0 mm 1 m/S 623 mmHg 80%
    18:00 -10°C° 0 mm 2 m/S 623 mmHg 73%
    19:00 -13°C° 0 mm 3 m/S 623 mmHg 65%
    20:00 -13°C° 0 mm 3 m/S 622 mmHg 63%
    21:00 -12°C° 0 mm 3 m/S 622 mmHg 61%
    22:00 -12°C° 0 mm 4 m/S 621 mmHg 59%
    23:00 -12°C° 0 mm 4 m/S 621 mmHg 62%
    Mehr zeigen